Hourly Weather Klatwy

Today, 25 July, Sunday

Time Temperature Precipitation Wind Pressure Humidity
00:00 +19°C° 0 mm 2 mps 744 mmHg 73%
01:00 +19°C° 0 mm 2 mps 744 mmHg 72%
02:00 +18°C° 0 mm 2 mps 744 mmHg 72%
03:00 +18°C° 0 mm 2 mps 744 mmHg 72%
04:00 +18°C° 0 mm 3 mps 744 mmHg 72%
05:00 +17°C° 0 mm 3 mps 744 mmHg 73%
06:00 +19°C° 0 mm 3 mps 744 mmHg 70%
07:00 +20°C° 0 mm 3 mps 744 mmHg 68%
08:00 +21°C° 0 mm 3 mps 744 mmHg 66%
09:00 +24°C° 0 mm 3 mps 744 mmHg 61%
10:00 +25°C° 0 mm 3 mps 744 mmHg 56%
11:00 +27°C° 0 mm 4 mps 744 mmHg 52%
12:00 +28°C° 0 mm 4 mps 744 mmHg 49%
13:00 +29°C° 0 mm 4 mps 744 mmHg 46%
14:00 +29°C° 0 mm 4 mps 744 mmHg 43%
15:00 +29°C° 0 mm 4 mps 744 mmHg 45%
16:00 +29°C° 0 mm 4 mps 744 mmHg 46%
17:00 +29°C° 0 mm 3 mps 744 mmHg 48%
18:00 +27°C° 0 mm 3 mps 744 mmHg 55%
19:00 +25°C° 0 mm 3 mps 743 mmHg 63%
20:00 +22°C° 0 mm 3 mps 743 mmHg 70%
21:00 +22°C° 0 mm 3 mps 743 mmHg 72%
22:00 +21°C° 0 mm 3 mps 743 mmHg 73%
23:00 +21°C° 0 mm 3 mps 744 mmHg 75%

Tomorrow, 26 July, Monday

Time Temperature Precipitation Wind Pressure Humidity
00:00 +21°C° 0 mm 4 mps 743 mmHg 72%
01:00 +21°C° 0 mm 4 mps 743 mmHg 69%
02:00 +21°C° 0 mm 4 mps 743 mmHg 65%
03:00 +21°C° 0 mm 4 mps 743 mmHg 67%
04:00 +20°C° 0 mm 4 mps 743 mmHg 68%
05:00 +20°C° 0 mm 4 mps 743 mmHg 69%
06:00 +21°C° 0 mm 4 mps 743 mmHg 68%
07:00 +21°C° 0 mm 4 mps 743 mmHg 68%
08:00 +22°C° 0 mm 4 mps 743 mmHg 68%
09:00 +22°C° 0 mm 4 mps 743 mmHg 69%
10:00 +22°C° 0 mm 4 mps 743 mmHg 69%
11:00 +22°C° 0 mm 3 mps 744 mmHg 70%
12:00 +25°C° 0 mm 4 mps 743 mmHg 64%
13:00 +27°C° 0 mm 5 mps 743 mmHg 59%
14:00 +29°C° 0 mm 5 mps 743 mmHg 53%
15:00 +29°C° 0 mm 5 mps 743 mmHg 54%
16:00 +29°C° 0 mm 5 mps 743 mmHg 55%
17:00 +29°C° 0 mm 6 mps 742 mmHg 57%
18:00 +27°C° 0.7 mm 5 mps 742 mmHg 64%
19:00 +26°C° 0.7 mm 5 mps 742 mmHg 72%
20:00 +23°C° 0.7 mm 4 mps 742 mmHg 79%
21:00 +22°C° 2.3 mm 4 mps 742 mmHg 84%
22:00 +21°C° 2.3 mm 3 mps 742 mmHg 88%
23:00 +20°C° 2.3 mm 2 mps 742 mmHg 93%

Day after tomorrow, 27 July, Tuesday

Time Temperature Precipitation Wind Pressure Humidity
00:00 +19°C° 0.6 mm 2 mps 742 mmHg 93%
01:00 +19°C° 0.6 mm 3 mps 742 mmHg 94%
02:00 +19°C° 0.6 mm 3 mps 742 mmHg 94%
03:00 +19°C° 0.1 mm 2 mps 742 mmHg 94%
04:00 +18°C° 0.1 mm 2 mps 741 mmHg 93%
05:00 +18°C° 0.1 mm 2 mps 741 mmHg 93%
06:00 +20°C° 0.5 mm 2 mps 741 mmHg 89%
07:00 +23°C° 0.5 mm 2 mps 742 mmHg 85%
08:00 +24°C° 0.5 mm 2 mps 742 mmHg 80%
09:00 +26°C° 0 mm 3 mps 742 mmHg 73%
10:00 +27°C° 0 mm 3 mps 742 mmHg 67%
11:00 +29°C° 0 mm 3 mps 742 mmHg 60%
12:00 +29°C° 0.1 mm 4 mps 742 mmHg 60%
13:00 +30°C° 0.1 mm 4 mps 742 mmHg 59%
14:00 +30°C° 0.1 mm 4 mps 742 mmHg 59%
15:00 +29°C° 0.3 mm 4 mps 742 mmHg 62%
16:00 +29°C° 0.3 mm 5 mps 742 mmHg 65%
17:00 +28°C° 0.3 mm 5 mps 742 mmHg 67%
18:00 +27°C° 0 mm 4 mps 742 mmHg 73%
19:00 +26°C° 0 mm 3 mps 742 mmHg 79%
20:00 +24°C° 0 mm 2 mps 742 mmHg 84%
21:00 +24°C° 0 mm 2 mps 742 mmHg 86%
22:00 +23°C° 0 mm 1 mps 742 mmHg 87%
23:00 +22°C° 0 mm 1 mps 743 mmHg 88%

28 July, Wednesday

Time Temperature Precipitation Wind Pressure Humidity
00:00 +22°C° 0.2 mm 1 mps 743 mmHg 89%
01:00 +22°C° 0.2 mm 1 mps 743 mmHg 89%
02:00 +21°C° 0.2 mm 1 mps 743 mmHg 90%
03:00 +21°C° 0 mm 1 mps 743 mmHg 90%
04:00 +20°C° 0 mm 2 mps 743 mmHg 90%
05:00 +19°C° 0 mm 2 mps 743 mmHg 91%
06:00 +21°C° 0 mm 2 mps 743 mmHg 85%
07:00 +23°C° 0 mm 2 mps 743 mmHg 80%
08:00 +25°C° 0 mm 2 mps 743 mmHg 74%
09:00 +26°C° 0 mm 2 mps 743 mmHg 66%
10:00 +28°C° 0 mm 2 mps 743 mmHg 58%
11:00 +29°C° 0 mm 1 mps 743 mmHg 50%
12:00 +30°C° 0 mm 1 mps 743 mmHg 47%
13:00 +31°C° 0 mm 1 mps 743 mmHg 45%
14:00 +31°C° 0 mm 1 mps 743 mmHg 43%
15:00 +31°C° 0 mm 1 mps 742 mmHg 44%
16:00 +31°C° 0 mm 1 mps 742 mmHg 46%
17:00 +31°C° 0 mm 2 mps 742 mmHg 47%
18:00 +28°C° 0.5 mm 2 mps 742 mmHg 58%
19:00 +26°C° 0.5 mm 2 mps 742 mmHg 69%
20:00 +24°C° 0.5 mm 2 mps 741 mmHg 80%
21:00 +22°C° 1.8 mm 3 mps 741 mmHg 84%
22:00 +21°C° 1.8 mm 3 mps 741 mmHg 88%
23:00 +20°C° 1.8 mm 3 mps 741 mmHg 92%

29 July, Thursday

Time Temperature Precipitation Wind Pressure Humidity
00:00 +20°C° 0.1 mm 3 mps 741 mmHg 92%
01:00 +20°C° 0.1 mm 2 mps 741 mmHg 92%
02:00 +20°C° 0.1 mm 1 mps 741 mmHg 92%
03:00 +20°C° 0.9 mm 1 mps 741 mmHg 94%
04:00 +19°C° 0.9 mm 2 mps 741 mmHg 95%
05:00 +19°C° 0.9 mm 2 mps 742 mmHg 96%
06:00 +19°C° 0.7 mm 2 mps 742 mmHg 95%
07:00 +20°C° 0.7 mm 2 mps 742 mmHg 93%
08:00 +20°C° 0.7 mm 3 mps 742 mmHg 92%
09:00 +21°C° 0.1 mm 3 mps 742 mmHg 89%
10:00 +22°C° 0.1 mm 3 mps 743 mmHg 85%
11:00 +22°C° 0.1 mm 3 mps 743 mmHg 82%
12:00 +23°C° 0.2 mm 4 mps 743 mmHg 78%
13:00 +25°C° 0.2 mm 4 mps 743 mmHg 74%
14:00 +26°C° 0.2 mm 4 mps 743 mmHg 70%
15:00 +26°C° 0.2 mm 4 mps 743 mmHg 70%
16:00 +26°C° 0.2 mm 4 mps 743 mmHg 69%
17:00 +26°C° 0.2 mm 4 mps 743 mmHg 69%
18:00 +25°C° 0 mm 3 mps 743 mmHg 73%
19:00 +24°C° 0 mm 3 mps 743 mmHg 76%
20:00 +23°C° 0 mm 2 mps 743 mmHg 80%
21:00 +21°C° 0 mm 2 mps 743 mmHg 81%
22:00 +20°C° 0 mm 2 mps 743 mmHg 83%
23:00 +19°C° 0 mm 2 mps 743 mmHg 84%

30 July, Friday

Time Temperature Precipitation Wind Pressure Humidity
00:00 +20°C° 0 mm 1 mps 743 mmHg 85%
01:00 +19°C° 0 mm 1 mps 743 mmHg 85%
02:00 +19°C° 0 mm 1 mps 742 mmHg 85%
03:00 +19°C° 0 mm 1 mps 742 mmHg 86%
04:00 +19°C° 0 mm 1 mps 742 mmHg 87%
05:00 +18°C° 0 mm 1 mps 742 mmHg 87%
06:00 +20°C° 0 mm 1 mps 742 mmHg 82%
07:00 +22°C° 0 mm 1 mps 742 mmHg 76%
08:00 +24°C° 0 mm 1 mps 742 mmHg 71%
09:00 +25°C° 0 mm 1 mps 742 mmHg 66%
10:00 +26°C° 0 mm 2 mps 742 mmHg 60%
11:00 +28°C° 0 mm 2 mps 742 mmHg 55%
12:00 +28°C° 0 mm 2 mps 741 mmHg 53%
13:00 +29°C° 0 mm 2 mps 741 mmHg 50%
14:00 +30°C° 0 mm 2 mps 741 mmHg 48%
15:00 +30°C° 0 mm 2 mps 740 mmHg 49%
16:00 +30°C° 0 mm 3 mps 740 mmHg 50%
17:00 +30°C° 0 mm 3 mps 740 mmHg 51%
18:00 +29°C° 0 mm 3 mps 740 mmHg 59%
19:00 +27°C° 0 mm 3 mps 739 mmHg 67%
20:00 +25°C° 0 mm 3 mps 739 mmHg 75%
21:00 +24°C° 0.1 mm 3 mps 739 mmHg 77%
22:00 +24°C° 0.1 mm 3 mps 739 mmHg 79%
23:00 +22°C° 0.1 mm 3 mps 739 mmHg 81%
Show more